| time (UTC) | temp F | wind direction | speed MPH | gust MPH | rain 1hr in | rain 24hr in | rain mn in | humidity % | barometer mb |
| 20260503005548 | 73 | 283 | 2.0 | 10.0 | 0.00 | 0.00 | 0.00 | 47 | 1013.3 |
| 20260503005048 | 73 | 318 | 4.0 | 10.0 | 0.00 | 0.00 | 0.00 | 47 | 1013.4 |
| 20260503004618 | 73 | 313 | 3.0 | 10.0 | 0.00 | 0.00 | 0.00 | 46 | 1013.4 |
| 20260503004047 | 73 | 294 | 3.0 | 11.0 | 0.00 | 0.00 | 0.00 | 46 | 1013.5 |
| 20260503003548 | 73 | 296 | 3.0 | 11.0 | 0.00 | 0.00 | 0.00 | 46 | 1013.4 |
| 20260503003051 | 73 | 303 | 4.0 | 8.0 | 0.00 | 0.00 | 0.00 | 47 | 1013.4 |
| 20260503002551 | 73 | 348 | 3.0 | 12.0 | 0.00 | 0.00 | 0.00 | 47 | 1013.4 |
| 20260503002048 | 73 | 279 | 3.0 | 12.0 | 0.00 | 0.00 | 0.00 | 49 | 1013.3 |
| 20260503001600 | 73 | 315 | 4.0 | 12.0 | 0.00 | 0.00 | 0.00 | 50 | 1013.3 |
| 20260503001048 | 73 | 294 | 5.0 | 11.0 | 0.00 | 0.00 | 0.00 | 51 | 1013.3 |
| 20260503000547 | 73 | 260 | 5.0 | 11.0 | 0.00 | 0.00 | 0.00 | 51 | 1013.5 |
| 20260503000106 | 73 | 265 | 5.0 | 11.0 | 0.00 | 0.00 | 0.00 | 50 | 1013.5 |
| 20260502235548 | 73 | 303 | 4.0 | 11.0 | 0.00 | 0.00 | 0.00 | 52 | 1013.6 |
| 20260502235048 | 73 | 296 | 4.0 | 11.0 | 0.00 | 0.00 | 0.00 | 51 | 1013.6 |
| 20260502234616 | 74 | 286 | 4.0 | 10.0 | 0.00 | 0.00 | 0.00 | 50 | 1013.6 |
| 20260502234048 | 73 | 0 | 2.0 | 10.0 | 0.00 | 0.00 | 0.00 | 52 | 1013.7 |
| 20260502233547 | 73 | 16 | 4.0 | 12.0 | 0.00 | 0.00 | 0.00 | 51 | 1013.7 |
| 20260502233108 | 73 | 277 | 4.0 | 12.0 | 0.00 | 0.00 | 0.00 | 52 | 1013.7 |
| 20260502232548 | 74 | 295 | 1.0 | 9.0 | 0.00 | 0.00 | 0.00 | 48 | 1013.7 |
| 20260502232048 | 73 | 307 | 3.0 | 9.0 | 0.00 | 0.00 | 0.00 | 51 | 1013.7 |
| 20260502231606 | 73 | 242 | 3.0 | 9.0 | 0.00 | 0.00 | 0.00 | 51 | 1013.8 |
| 20260502231051 | 74 | 244 | 1.0 | 8.0 | 0.00 | 0.00 | 0.00 | 50 | 1013.8 |
| 20260502230546 | 73 | 291 | 4.0 | 8.0 | 0.00 | 0.00 | 0.00 | 51 | 1013.9 |
| 20260502230053 | 73 | 300 | 3.0 | 8.0 | 0.00 | 0.00 | 0.00 | 52 | 1013.9 |
| 20260502225548 | 73 | 0 | 3.0 | 8.0 | 0.00 | 0.00 | 0.00 | 54 | 1014.0 |
| 20260502225045 | 73 | 77 | 3.0 | 11.0 | 0.00 | 0.00 | 0.00 | 53 | 1014.0 |
| 20260502224549 | 73 | 280 | 3.0 | 11.0 | 0.00 | 0.00 | 0.00 | 56 | 1014.1 |
| 20260502224045 | 73 | 213 | 3.0 | 10.0 | 0.00 | 0.00 | 0.00 | 56 | 1014.1 |
| 20260502223546 | 73 | 302 | 4.0 | 10.0 | 0.00 | 0.00 | 0.00 | 57 | 1014.3 |
| 20260502223055 | 74 | 327 | 2.0 | 10.0 | 0.00 | 0.00 | 0.00 | 56 | 1014.3 |
| 20260502222543 | 73 | 190 | 2.0 | 10.0 | 0.00 | 0.00 | 0.00 | 58 | 1014.3 |
| 20260502222045 | 72 | 309 | 6.0 | 10.0 | 0.00 | 0.00 | 0.00 | 59 | 1014.4 |
| 20260502221601 | 72 | 311 | 4.0 | 10.0 | 0.00 | 0.00 | 0.00 | 59 | 1014.5 |
| 20260502221045 | 72 | 268 | 4.0 | 10.0 | 0.00 | 0.00 | 0.00 | 60 | 1014.5 |
| 20260502220548 | 72 | 289 | 4.0 | 12.0 | 0.00 | 0.00 | 0.00 | 60 | 1014.5 |
| 20260502220053 | 72 | 275 | 5.0 | 12.0 | 0.00 | 0.00 | 0.00 | 60 | 1014.6 |
| 20260502215546 | 72 | 0 | 4.0 | 12.0 | 0.00 | 0.00 | 0.00 | 61 | 1014.6 |
| 20260502215049 | 73 | 306 | 4.0 | 9.0 | 0.00 | 0.00 | 0.00 | 61 | 1014.6 |
| 20260502214603 | 73 | 302 | 2.0 | 8.0 | 0.00 | 0.00 | 0.00 | 62 | 1014.6 |
| 20260502214046 | 72 | 232 | 3.0 | 9.0 | 0.00 | 0.00 | 0.00 | 61 | 1014.8 |
| 20260502213546 | 73 | 322 | 1.0 | 9.0 | 0.00 | 0.00 | 0.00 | 62 | 1015.0 |
| 20260502213055 | 72 | 291 | 3.0 | 14.0 | 0.00 | 0.00 | 0.00 | 63 | 1015.0 |
| 20260502212546 | 71 | 277 | 2.0 | 14.0 | 0.00 | 0.00 | 0.00 | 64 | 1015.0 |
| 20260502212045 | 71 | 148 | 2.0 | 9.0 | 0.00 | 0.00 | 0.00 | 64 | 1015.0 |
| 20260502211556 | 70 | 205 | 4.0 | 10.0 | 0.00 | 0.00 | 0.00 | 65 | 1015.1 |
| 20260502211049 | 71 | 302 | 2.0 | 10.0 | 0.00 | 0.00 | 0.00 | 62 | 1015.2 |
| 20260502210545 | 71 | 251 | 2.0 | 10.0 | 0.00 | 0.00 | 0.00 | 62 | 1015.2 |
| 20260502210051 | 70 | 308 | 4.0 | 10.0 | 0.00 | 0.00 | 0.00 | 65 | 1015.2 |
| 20260502205545 | 70 | 264 | 3.0 | 10.0 | 0.00 | 0.00 | 0.00 | 65 | 1015.2 |
| 20260502205047 | 71 | 270 | 1.0 | 10.0 | 0.00 | 0.00 | 0.00 | 64 | 1015.3 |
| 20260502204555 | 70 | 312 | 3.0 | 10.0 | 0.00 | 0.00 | 0.00 | 66 | 1015.3 |
| 20260502204045 | 70 | 235 | 4.0 | 10.0 | 0.00 | 0.00 | 0.00 | 67 | 1015.3 |
| 20260502203544 | 71 | 225 | 3.0 | 9.0 | 0.00 | 0.00 | 0.00 | 66 | 1015.3 |
| 20260502203108 | 69 | 210 | 2.0 | 9.0 | 0.00 | 0.00 | 0.00 | 68 | 1015.3 |
| 20260502202545 | 70 | 344 | 2.0 | 7.0 | 0.00 | 0.00 | 0.00 | 68 | 1015.4 |
| 20260502202046 | 69 | 247 | 3.0 | 9.0 | 0.00 | 0.00 | 0.00 | 70 | 1015.5 |
| 20260502201553 | 68 | 310 | 3.0 | 10.0 | 0.00 | 0.00 | 0.00 | 70 | 1015.5 |
| 20260502201047 | 68 | 221 | 3.0 | 10.0 | 0.00 | 0.00 | 0.00 | 69 | 1015.6 |
| 20260502200547 | 68 | 311 | 2.0 | 8.0 | 0.00 | 0.00 | 0.00 | 69 | 1015.7 |
| 20260502200051 | 68 | 325 | 2.0 | 8.0 | 0.00 | 0.00 | 0.00 | 69 | 1015.7 |
| 20260502195548 | 68 | 269 | 1.0 | 8.0 | 0.00 | 0.00 | 0.00 | 69 | 1015.8 |
| 20260502195047 | 68 | 286 | 1.0 | 8.0 | 0.00 | 0.00 | 0.00 | 70 | 1015.9 |
| 20260502194551 | 66 | 258 | 3.0 | 8.0 | 0.00 | 0.00 | 0.00 | 72 | 1015.9 |
| 20260502194047 | 67 | 298 | 2.0 | 11.0 | 0.00 | 0.00 | 0.00 | 72 | 1015.9 |
| 20260502193548 | 66 | 213 | 4.0 | 11.0 | 0.00 | 0.00 | 0.00 | 74 | 1016.0 |
| 20260502193051 | 66 | 283 | 3.0 | 10.0 | 0.00 | 0.00 | 0.00 | 73 | 1016.0 |
| 20260502192546 | 66 | 316 | 2.0 | 10.0 | 0.00 | 0.00 | 0.00 | 72 | 1016.1 |
| 20260502192048 | 65 | 310 | 4.0 | 10.0 | 0.00 | 0.00 | 0.00 | 73 | 1016.1 |
| 20260502191551 | 66 | 0 | 2.0 | 9.0 | 0.00 | 0.00 | 0.00 | 74 | 1016.1 |
| 20260502191048 | 65 | 306 | 4.0 | 9.0 | 0.00 | 0.00 | 0.00 | 74 | 1016.2 |
| 20260502190545 | 65 | 281 | 3.0 | 7.0 | 0.00 | 0.00 | 0.00 | 74 | 1016.2 |
| 20260502190053 | 66 | 15 | 2.0 | 8.0 | 0.00 | 0.00 | 0.00 | 72 | 1016.3 |
| 20260502185548 | 66 | 0 | 1.0 | 8.0 | 0.00 | 0.00 | 0.00 | 73 | 1016.3 |
| 20260502185048 | 65 | 282 | 2.0 | 6.0 | 0.00 | 0.00 | 0.00 | 70 | 1016.3 |
| 20260502184552 | 65 | 322 | 1.0 | 6.0 | 0.00 | 0.00 | 0.00 | 71 | 1016.4 |
| 20260502184051 | 65 | 260 | 2.0 | 6.0 | 0.00 | 0.00 | 0.00 | 71 | 1016.5 |
| 20260502183547 | 65 | 16 | 2.0 | 5.0 | 0.00 | 0.00 | 0.00 | 73 | 1016.4 |
| 20260502183058 | 64 | 203 | 1.0 | 7.0 | 0.00 | 0.00 | 0.00 | 74 | 1016.5 |
| 20260502182549 | 63 | 252 | 1.0 | 7.0 | 0.00 | 0.00 | 0.00 | 76 | 1016.4 |
| 20260502182047 | 63 | 315 | 1.0 | 7.0 | 0.00 | 0.00 | 0.00 | 75 | 1016.5 |
| 20260502181551 | 63 | 296 | 0.0 | 7.0 | 0.00 | 0.00 | 0.00 | 76 | 1016.4 |
| 20260502181047 | 63 | 234 | 1.0 | 6.0 | 0.00 | 0.00 | 0.00 | 76 | 1016.6 |
| 20260502180550 | 62 | 234 | 2.0 | 6.0 | 0.00 | 0.00 | 0.00 | 76 | 1016.5 |
| 20260502164047 | 57 | 317 | 1.0 | 5.0 | 0.00 | 0.00 | 0.00 | 87 | 1016.8 |
| 20260502163547 | 56 | 309 | 1.0 | 7.0 | 0.00 | 0.00 | 0.00 | 86 | 1016.8 |
| 20260502163104 | 56 | 210 | 1.0 | 7.0 | 0.00 | 0.00 | 0.00 | 87 | 1017.0 |
| 20260502162551 | 56 | 241 | 2.0 | 5.0 | 0.00 | 0.00 | 0.00 | 87 | 1017.0 |
| 20260502162050 | 55 | 0 | 0.0 | 3.0 | 0.00 | 0.00 | 0.00 | 88 | 1016.9 |
| 20260502161558 | 54 | 0 | 0.0 | 3.0 | 0.00 | 0.00 | 0.00 | 90 | 1016.9 |
| 20260502161048 | 54 | 0 | 0.0 | 3.0 | 0.00 | 0.00 | 0.00 | 90 | 1016.8 |
| 20260502160548 | 54 | 0 | 1.0 | 4.0 | 0.00 | 0.00 | 0.00 | 90 | 1016.8 |
| 20260502160104 | 53 | 0 | 1.0 | 4.0 | 0.00 | 0.00 | 0.00 | 90 | 1016.8 |
| 20260502152047 | 52 | 0 | 1.0 | 5.0 | 0.00 | 0.00 | 0.00 | 91 | 1016.7 |
| 20260502151556 | 52 | 196 | 1.0 | 5.0 | 0.00 | 0.00 | 0.00 | 91 | 1016.7 |
| 20260502151050 | 52 | 0 | 1.0 | 5.0 | 0.00 | 0.00 | 0.00 | 92 | 1016.8 |
| 20260502150548 | 51 | 220 | 0.0 | 5.0 | 0.00 | 0.00 | 0.00 | 92 | 1016.7 |
| 20260502130549 | 48 | 0 | 0.0 | 0.0 | 0.00 | 0.00 | 0.00 | 93 | 1017.2 |
| 20260502123547 | 48 | 0 | 0.0 | 4.0 | 0.00 | 0.00 | 0.00 | 93 | 1017.3 |
| 20260502123053 | 48 | 167 | 2.0 | 4.0 | 0.00 | 0.00 | 0.00 | 93 | 1017.2 |
| 20260502122548 | 48 | 167 | 0.0 | 4.0 | 0.00 | 0.00 | 0.00 | 93 | 1017.2 |
| 20260502122047 | 48 | 0 | 0.0 | 4.0 | 0.00 | 0.00 | 0.00 | 93 | 1017.2 |
| 20260502121554 | 48 | 167 | 1.0 | 4.0 | 0.00 | 0.00 | 0.00 | 93 | 1017.1 |
| 20260502121051 | 48 | 167 | 0.0 | 1.0 | 0.00 | 0.00 | 0.00 | 93 | 1016.8 |
| 20260502120547 | 48 | 0 | 0.0 | 1.0 | 0.00 | 0.00 | 0.00 | 93 | 1016.9 |
| 20260502120110 | 47 | 0 | 0.0 | 1.0 | 0.00 | 0.00 | 0.00 | 93 | 1016.7 |
| 20260502115547 | 47 | 0 | 0.0 | 4.0 | 0.00 | 0.00 | 0.00 | 93 | 1016.7 |
| 20260502115045 | 47 | 0 | 0.0 | 4.0 | 0.00 | 0.00 | 0.00 | 93 | 1016.6 |
| 20260502114601 | 47 | 167 | 1.0 | 4.0 | 0.00 | 0.00 | 0.00 | 93 | 1016.5 |
| 20260502114048 | 47 | 0 | 0.0 | 0.0 | 0.00 | 0.00 | 0.00 | 93 | 1016.4 |
| 20260502113547 | 47 | 0 | 0.0 | 0.0 | 0.00 | 0.00 | 0.00 | 92 | 1016.3 |
| 20260502113053 | 47 | 0 | 0.0 | 0.0 | 0.00 | 0.00 | 0.00 | 92 | 1016.3 |
| 20260502112548 | 48 | 0 | 0.0 | 0.0 | 0.00 | 0.00 | 0.00 | 92 | 1016.3 |
| 20260502112047 | 48 | 0 | 0.0 | 0.0 | 0.00 | 0.00 | 0.00 | 92 | 1016.4 |
| 20260502111601 | 48 | 0 | 0.0 | 0.0 | 0.00 | 0.00 | 0.00 | 92 | 1016.4 |
| 20260502111049 | 48 | 0 | 0.0 | 0.0 | 0.00 | 0.00 | 0.00 | 92 | 1016.4 |
| 20260502110547 | 49 | 0 | 0.0 | 0.0 | 0.00 | 0.00 | 0.00 | 92 | 1016.5 |
| 20260502110057 | 48 | 0 | 0.0 | 1.0 | 0.00 | 0.00 | 0.00 | 92 | 1016.4 |
| 20260502105548 | 48 | 0 | 0.0 | 1.0 | 0.00 | 0.00 | 0.00 | 92 | 1016.3 |
| 20260502105047 | 48 | 167 | 0.0 | 1.0 | 0.00 | 0.00 | 0.00 | 91 | 1016.5 |
| 20260502104555 | 48 | 0 | 0.0 | 0.0 | 0.00 | 0.00 | 0.00 | 91 | 1016.6 |
| 20260502104046 | 48 | 0 | 0.0 | 0.0 | 0.00 | 0.00 | 0.00 | 91 | 1016.7 |
| 20260502103545 | 49 | 0 | 0.0 | 0.0 | 0.00 | 0.00 | 0.00 | 91 | 1016.7 |
| 20260502103051 | 49 | 0 | 0.0 | 0.0 | 0.00 | 0.00 | 0.00 | 91 | 1016.6 |
| 20260502102546 | 49 | 0 | 0.0 | 0.0 | 0.00 | 0.00 | 0.00 | 90 | 1016.6 |
| 20260502102046 | 49 | 0 | 0.0 | 0.0 | 0.00 | 0.00 | 0.00 | 90 | 1016.6 |
| 20260502101554 | 49 | 0 | 0.0 | 0.0 | 0.00 | 0.00 | 0.00 | 90 | 1016.6 |
| 20260502101045 | 49 | 0 | 0.0 | 0.0 | 0.00 | 0.00 | 0.00 | 90 | 1016.5 |
| 20260502100547 | 49 | 0 | 0.0 | 0.0 | 0.00 | 0.00 | 0.00 | 90 | 1016.5 |
| 20260502100110 | 49 | 0 | 0.0 | 0.0 | 0.00 | 0.00 | 0.00 | 90 | 1016.5 |
| 20260502091045 | 50 | 0 | 0.0 | 3.0 | 0.00 | 0.00 | 0.00 | 89 | 1016.4 |
| 20260502090546 | 50 | 0 | 0.0 | 3.0 | 0.00 | 0.00 | 0.00 | 89 | 1016.4 |
| 20260502071048 | 52 | 0 | 0.0 | 1.0 | 0.00 | 0.00 | 0.00 | 85 | 1016.2 |
| 20260502070547 | 52 | 0 | 0.0 | 1.0 | 0.00 | 0.00 | 0.00 | 85 | 1016.1 |
| 20260502070048 | 52 | 0 | 0.0 | 1.0 | 0.00 | 0.00 | 0.00 | 85 | 1016.1 |
| 20260502065548 | 52 | 0 | 0.0 | 0.0 | 0.00 | 0.00 | 0.00 | 84 | 1016.1 |
| 20260502065047 | 52 | 0 | 0.0 | 0.0 | 0.00 | 0.00 | 0.00 | 84 | 1016.2 |
| 20260502064600 | 53 | 0 | 0.0 | 2.0 | 0.00 | 0.00 | 0.00 | 84 | 1016.1 |
| 20260502064048 | 53 | 0 | 0.0 | 2.0 | 0.00 | 0.00 | 0.00 | 83 | 1016.1 |
| 20260502063551 | 53 | 0 | 0.0 | 1.0 | 0.00 | 0.00 | 0.00 | 83 | 1016.2 |
| 20260502063052 | 53 | 0 | 0.0 | 2.0 | 0.00 | 0.00 | 0.00 | 83 | 1016.1 |
| 20260502062548 | 53 | 0 | 0.0 | 2.0 | 0.00 | 0.00 | 0.00 | 83 | 1016.1 |
| 20260502062051 | 53 | 0 | 0.0 | 2.0 | 0.00 | 0.00 | 0.00 | 83 | 1016.2 |
| 20260502061558 | 53 | 0 | 0.0 | 2.0 | 0.00 | 0.00 | 0.00 | 83 | 1016.1 |
| 20260502061045 | 53 | 212 | 0.0 | 2.0 | 0.00 | 0.00 | 0.00 | 83 | 1016.1 |
| 20260502060547 | 53 | 0 | 0.0 | 1.0 | 0.00 | 0.00 | 0.00 | 82 | 1016.0 |
| 20260502060059 | 53 | 0 | 0.0 | 1.0 | 0.00 | 0.00 | 0.00 | 82 | 1016.0 |
| 20260502055550 | 53 | 0 | 0.0 | 2.0 | 0.00 | 0.00 | 0.00 | 82 | 1016.1 |
| 20260502055048 | 53 | 0 | 0.0 | 2.0 | 0.00 | 0.00 | 0.00 | 82 | 1015.9 |
| 20260502054552 | 54 | 0 | 0.0 | 2.0 | 0.00 | 0.00 | 0.00 | 82 | 1015.9 |
| 20260502054049 | 54 | 0 | 0.0 | 3.0 | 0.00 | 0.00 | 0.00 | 82 | 1015.8 |
| 20260502053548 | 54 | 0 | 0.0 | 3.0 | 0.00 | 0.00 | 0.00 | 81 | 1015.9 |
| 20260502053052 | 54 | 212 | 0.0 | 2.0 | 0.00 | 0.00 | 0.00 | 80 | 1015.9 |
| 20260502052551 | 54 | 0 | 0.0 | 1.0 | 0.00 | 0.00 | 0.00 | 80 | 1015.8 |
| 20260502052048 | 54 | 0 | 0.0 | 1.0 | 0.00 | 0.00 | 0.00 | 79 | 1015.9 |
| 20260502051634 | 54 | 0 | 0.0 | 1.0 | 0.00 | 0.00 | 0.00 | 79 | 1015.8 |
| 20260502051047 | 54 | 0 | 0.0 | 2.0 | 0.00 | 0.00 | 0.00 | 79 | 1015.8 |
| 20260502050547 | 55 | 0 | 0.0 | 2.0 | 0.00 | 0.00 | 0.00 | 78 | 1015.9 |
| 20260502050054 | 55 | 0 | 0.0 | 0.0 | 0.00 | 0.00 | 0.00 | 78 | 1015.7 |
| 20260502045548 | 55 | 0 | 0.0 | 3.0 | 0.00 | 0.00 | 0.00 | 78 | 1015.5 |
| 20260502045048 | 55 | 0 | 0.0 | 3.0 | 0.00 | 0.00 | 0.00 | 77 | 1015.6 |
| 20260502044602 | 55 | 0 | 0.0 | 3.0 | 0.00 | 0.00 | 0.00 | 76 | 1015.6 |
| 20260502044048 | 55 | 0 | 0.0 | 3.0 | 0.00 | 0.00 | 0.00 | 76 | 1015.6 |
| 20260502043548 | 55 | 200 | 0.0 | 3.0 | 0.00 | 0.00 | 0.00 | 76 | 1015.7 |
| 20260502043053 | 55 | 0 | 1.0 | 3.0 | 0.00 | 0.00 | 0.00 | 77 | 1015.6 |
| 20260502042551 | 55 | 200 | 1.0 | 3.0 | 0.00 | 0.00 | 0.00 | 78 | 1015.6 |
| 20260502042048 | 55 | 0 | 0.0 | 0.0 | 0.00 | 0.00 | 0.00 | 77 | 1015.6 |
| 20260502041550 | 56 | 0 | 0.0 | 1.0 | 0.00 | 0.00 | 0.00 | 77 | 1015.4 |
| 20260502041052 | 56 | 0 | 0.0 | 2.0 | 0.00 | 0.00 | 0.00 | 76 | 1015.6 |
| 20260502040548 | 56 | 0 | 0.0 | 3.0 | 0.00 | 0.00 | 0.00 | 76 | 1015.4 |
| 20260502040052 | 56 | 200 | 1.0 | 3.0 | 0.00 | 0.00 | 0.00 | 74 | 1015.6 |
| 20260502035547 | 57 | 0 | 0.0 | 5.0 | 0.00 | 0.00 | 0.00 | 75 | 1015.7 |
| 20260502035048 | 57 | 0 | 1.0 | 5.0 | 0.00 | 0.00 | 0.00 | 72 | 1015.6 |
| 20260502034552 | 57 | 168 | 1.0 | 8.0 | 0.00 | 0.00 | 0.00 | 73 | 1015.7 |
| 20260502034048 | 57 | 0 | 1.0 | 8.0 | 0.00 | 0.00 | 0.00 | 71 | 1015.6 |
| 20260502033549 | 57 | 304 | 2.0 | 9.0 | 0.00 | 0.00 | 0.00 | 70 | 1015.3 |
| 20260502033056 | 58 | 314 | 2.0 | 9.0 | 0.00 | 0.00 | 0.00 | 68 | 1015.0 |
| 20260502032547 | 58 | 330 | 3.0 | 7.0 | 0.00 | 0.00 | 0.00 | 69 | 1015.1 |
| 20260502032047 | 58 | 329 | 2.0 | 13.0 | 0.00 | 0.00 | 0.00 | 68 | 1015.2 |
| 20260502031607 | 58 | 190 | 0.0 | 13.0 | 0.00 | 0.00 | 0.00 | 68 | 1015.5 |
| 20260502031047 | 59 | 250 | 3.0 | 9.0 | 0.00 | 0.00 | 0.00 | 68 | 1015.5 |
| 20260502030552 | 59 | 223 | 2.0 | 6.0 | 0.00 | 0.00 | 0.00 | 68 | 1015.2 |
| 20260502030052 | 59 | 215 | 1.0 | 5.0 | 0.00 | 0.00 | 0.00 | 68 | 1015.1 |
| 20260502025548 | 60 | 0 | 1.0 | 4.0 | 0.00 | 0.00 | 0.00 | 68 | 1014.9 |
| 20260502025048 | 60 | 256 | 0.0 | 4.0 | 0.00 | 0.00 | 0.00 | 68 | 1014.9 |
| 20260502024555 | 60 | 316 | 0.0 | 5.0 | 0.00 | 0.00 | 0.00 | 68 | 1014.8 |
| 20260502024049 | 60 | 0 | 1.0 | 5.0 | 0.00 | 0.00 | 0.00 | 67 | 1014.7 |
| 20260502023548 | 60 | 250 | 2.0 | 7.0 | 0.00 | 0.00 | 0.00 | 67 | 1014.6 |
| 20260502023052 | 61 | 314 | 0.0 | 7.0 | 0.00 | 0.00 | 0.00 | 67 | 1014.6 |
| 20260502022550 | 61 | 295 | 2.0 | 6.0 | 0.00 | 0.00 | 0.00 | 68 | 1014.5 |
| 20260502022047 | 61 | 0 | 1.0 | 6.0 | 0.00 | 0.00 | 0.00 | 69 | 1014.5 |
| 20260502021552 | 62 | 270 | 2.0 | 10.0 | 0.00 | 0.00 | 0.00 | 69 | 1014.4 |
| 20260502021047 | 62 | 315 | 3.0 | 10.0 | 0.00 | 0.00 | 0.00 | 69 | 1014.4 |
| 20260502020550 | 62 | 328 | 3.0 | 9.0 | 0.00 | 0.00 | 0.00 | 69 | 1014.4 |
| 20260502020105 | 62 | 304 | 2.0 | 7.0 | 0.00 | 0.00 | 0.00 | 69 | 1014.5 |
| 20260502015547 | 62 | 0 | 2.0 | 8.0 | 0.00 | 0.00 | 0.00 | 69 | 1014.4 |
| 20260502015050 | 62 | 0 | 2.0 | 8.0 | 0.00 | 0.00 | 0.00 | 70 | 1014.4 |
| 20260502014550 | 62 | 308 | 3.0 | 9.0 | 0.00 | 0.00 | 0.00 | 70 | 1014.4 |
| 20260502014047 | 62 | 0 | 3.0 | 9.0 | 0.00 | 0.00 | 0.00 | 69 | 1014.4 |
| 20260502013548 | 63 | 327 | 2.0 | 10.0 | 0.00 | 0.00 | 0.00 | 70 | 1014.4 |
| 20260502013056 | 63 | 319 | 4.0 | 10.0 | 0.00 | 0.00 | 0.00 | 69 | 1014.3 |
| 20260502012547 | 63 | 42 | 2.0 | 10.0 | 0.00 | 0.00 | 0.00 | 69 | 1014.3 |
| 20260502012045 | 64 | 33 | 4.0 | 10.0 | 0.00 | 0.00 | 0.00 | 68 | 1014.3 |
| 20260502011551 | 64 | 327 | 4.0 | 12.0 | 0.00 | 0.00 | 0.00 | 68 | 1014.3 |
| 20260502011044 | 65 | 319 | 3.0 | 12.0 | 0.00 | 0.00 | 0.00 | 67 | 1014.3 |
| 20260502010549 | 65 | 319 | 4.0 | 12.0 | 0.00 | 0.00 | 0.00 | 67 | 1014.3 |
| 20260502010054 | 65 | 286 | 2.0 | 10.0 | 0.00 | 0.00 | 0.00 | 66 | 1014.3 |